Location: Holkham
(52.9500°N, 0.8167°E)
Time: 22:13:37
(UTC+00:00)

Geosat - Pass Details

Date: 19 May 2025
Orbit: 758 x 761 km, 108.1° (Epoch: 18 June)

Event Time Altitude Azimuth Distance (km) Brightness Sun altitude
Rises 20:39:00 0° 31° (NNE) 3,234 7.4 -5.9°
Reaches altitude 10° 20:41:17 10° 30° (NNE) 2,305 6.7 -6.1°
Maximum altitude 20:46:19 81° 304° (NW) 777 4.2 -6.6°
Drops below altitude 10° 20:51:18 10° 218° (SW) 2,291 6.4 -7.2°
Sets 20:53:34 0° 218° (SW) 3,213 7.1 -7.4°
